Weather History for Kivalina, AK

Change the Weather History Date:

Wednesday, February 1, 2012

  Actual Average Record
Temperature  
Mean Temperature -41 °F -  
Max Temperature -27 °F - - ()
Min Temperature -53 °F - - ()
Degree Days  
Heating Degree Days 106    
Moisture  
Dew Point -34 °F    
Average Humidity 73    
Maximum Humidity 73    
Minimum Humidity 73    
Precipitation  
Precipitation 0.00 in - - ()
Sea Level Pressure  
Sea Level Pressure 29.62 in    
Wind  
Wind Speed 6 mph (NE)    
Max Wind Speed 23 mph    
Max Gust Speed 31 mph    
Visibility 4 miles    
Events Fog    
T = Trace of Precipitation, MM = Missing Value Source: NWS Daily Summary

Daily Weather History Graph

Daily Weather History Graph

Search for Another Location

Airport:

Trip Planner

Search our weather history database for the weather conditions in past years. The results will help you decide how hot, cold, wet, or windy it might be!

Date:

Astronomy

Feb. 01, 2012 Rise Set
Actual Time 11:12 AM AKST 5:11 PM AKST
Civil Twilight 10:02 AM AKST 6:22 PM AKST
Nautical Twilight 8:52 AM AKST 7:32 PM AKST
Astronomical Twilight 7:48 AM AKST 8:36 PM AKST
Moon 10:20 AM AKST (2/1) 7:34 AM AKST (2/1)
Length of Visible Light 8h 20m
Length of Day
5h 58m
Waxing Gibbous, 66% of the Moon is Illuminated
Feb 1
Waxing Gibbous
Feb 7
Full
Feb 14
Last Quarter
Feb 21
New
Feb 29
First Quarter

Hourly Weather History & Observations

Time (AKST) Temp. Windchill Dew Point Humidity Pressure Visibility Wind Dir Wind Speed Gust Speed Precip Events Conditions
12:29 AM -50.8 °F - - N/A% 29.72 in 1.8 mi East 6.9 mph - N/A   Clear
12:38 AM -50.8 °F - - N/A% 29.72 in 3.0 mi East 6.9 mph - N/A   Clear
12:53 AM -50.1 °F - - N/A% 29.73 in 5.0 mi ENE 4.6 mph - N/A   Haze
1:53 AM -52.1 °F - - N/A% 29.74 in 8.0 mi NE 4.6 mph - N/A   Clear
2:53 AM -51.0 °F - - N/A% 29.75 in 8.0 mi ENE 5.8 mph - N/A   Clear
3:53 AM -53.0 °F - - N/A% 29.75 in 10.0 mi East 5.8 mph - N/A   Clear
4:53 AM -52.1 °F - - N/A% 29.75 in 10.0 mi ENE 4.6 mph - N/A   Clear
5:23 AM -50.8 °F - - N/A% 29.74 in 0.8 mi East 5.8 mph - N/A   Clear
5:33 AM -50.8 °F - - N/A% 29.74 in 2.5 mi ENE 4.6 mph - N/A   Clear
5:45 AM -50.8 °F - - N/A% 29.74 in 0.8 mi East 5.8 mph - N/A   Clear
5:51 AM -50.8 °F - - N/A% 29.75 in 2.0 mi East 4.6 mph - N/A   Clear
5:53 AM -51.0 °F - - N/A% 29.75 in 3.0 mi East 4.6 mph - N/A   Clear
6:53 AM -53.0 °F - - N/A% 29.75 in 4.0 mi ENE 4.6 mph - N/A   Haze
7:21 AM -52.6 °F - - N/A% 29.76 in 1.8 mi East 8.1 mph - N/A   Clear
7:30 AM -50.8 °F - - N/A% 29.75 in 0.5 mi East 5.8 mph - N/A Fog Light Freezing Fog
7:42 AM -50.8 °F - - N/A% 29.75 in 1.8 mi East 6.9 mph - N/A   Clear
7:45 AM -50.8 °F - - N/A% 29.75 in 4.0 mi ENE 4.6 mph - N/A   Haze
7:56 AM -52.6 °F - - N/A% 29.75 in 1.8 mi East 4.6 mph - N/A   Clear
8:05 AM -52.6 °F - - N/A% 29.75 in 4.0 mi East 3.5 mph - N/A   Haze
8:53 AM -53.0 °F - - N/A% 29.75 in 9.0 mi NNE 4.6 mph - N/A   Clear
9:53 AM -50.1 °F - - N/A% 29.75 in 4.0 mi NNE 5.8 mph - N/A   Haze
10:53 AM -52.1 °F - - N/A% 29.74 in 10.0 mi NE 4.6 mph - N/A   Clear
11:21 AM -50.8 °F - - N/A% 29.73 in 10.0 mi Calm Calm - N/A   Partly Cloudy
11:53 AM -53.0 °F - - N/A% 29.73 in 2.5 mi East 5.8 mph - N/A   Clear
12:07 PM -52.6 °F - - N/A% 29.72 in 4.0 mi East 4.6 mph - N/A   Haze
12:14 PM -52.6 °F - - N/A% 29.72 in 1.8 mi East 5.8 mph - N/A   Clear
12:23 PM -52.6 °F - - N/A% 29.72 in 3.0 mi ENE 3.5 mph - N/A   Clear
12:53 PM -52.1 °F - - N/A% 29.72 in 8.0 mi ENE 3.5 mph - N/A   Clear
1:53 PM -51.0 °F - - N/A% 29.69 in 6.0 mi North 3.5 mph - 0.00 in   Haze
2:30 PM -52.6 °F - - N/A% 29.67 in 1.0 mi East 4.6 mph - N/A   Clear
2:37 PM -50.8 °F - - N/A% 29.66 in 0.5 mi Calm Calm - N/A Fog Light Freezing Fog
2:42 PM -50.8 °F - - N/A% 29.66 in 2.0 mi ENE 3.5 mph - N/A   Clear
2:50 PM -50.8 °F - - N/A% 29.65 in 7.0 mi ENE 4.6 mph - N/A   Clear
2:53 PM -51.0 °F - - N/A% 29.66 in 8.0 mi ENE 4.6 mph - N/A   Clear
3:53 PM -47.9 °F -62.6 °F - N/A% 29.62 in 10.0 mi NE 3.5 mph - N/A   Clear
5:53 PM -38.9 °F -55.3 °F - N/A% 29.55 in 10.0 mi North 4.6 mph - N/A   Clear
6:16 PM -41.8 °F - - N/A% 29.53 in 1.8 mi Calm Calm - N/A   Clear
6:21 PM -41.8 °F - - N/A% 29.53 in 0.8 mi Calm Calm - N/A   Mist
6:28 PM -40.0 °F - - N/A% 29.52 in 1.0 mi Calm Calm - N/A   Mist
6:35 PM -41.8 °F - - N/A% 29.52 in 1.2 mi Calm Calm - N/A   Partly Cloudy
6:41 PM -43.6 °F - - N/A% 29.52 in 0.8 mi Calm Calm - N/A   Mist
6:49 PM -41.8 °F -55.6 °F - N/A% 29.51 in 0.8 mi Variable 3.5 mph - N/A   Clear
6:53 PM -38.9 °F -52.3 °F - N/A% 29.51 in 1.2 mi NNE 3.5 mph - N/A   Clear
6:57 PM -38.2 °F -51.5 °F - N/A% 29.50 in 3.0 mi North 3.5 mph - N/A   Clear
7:53 PM -35.0 °F -62.1 °F - N/A% 29.47 in 4.0 mi ENE 12.7 mph - N/A   Haze
8:53 PM -31.0 °F -62.4 °F - N/A% 29.43 in 2.5 mi NNE 19.6 mph - N/A   Clear
9:02 PM -31.0 °F -63.1 °F - N/A% 29.42 in 3.0 mi NNE 20.7 mph - N/A   Clear
9:13 PM -32.8 °F -62.3 °F - N/A% 29.42 in 2.0 mi NE 16.1 mph - N/A   Clear
9:33 PM -31.0 °F -60.8 °F - N/A% 29.40 in 1.5 mi NE 17.3 mph - N/A   Clear
9:40 PM -32.8 °F -59.3 °F - N/A% 29.39 in 3.0 mi NE 12.7 mph - N/A   Clear
9:53 PM -31.0 °F -63.8 °F - N/A% 29.37 in 1.8 mi North 21.9 mph - N/A   Clear
10:08 PM -29.2 °F -62.1 °F - N/A% 29.36 in 1.0 mi North 23.0 mph 29.9 mph N/A   Mist
10:38 PM -31.0 °F -63.1 °F - N/A% 29.35 in 1.5 mi NNE 20.7 mph - N/A   Clear
10:53 PM -31.0 °F -62.4 °F - N/A% 29.35 in 2.0 mi NNE 19.6 mph 26.5 mph N/A   Clear
11:17 PM -31.0 °F -63.1 °F - N/A% 29.33 in 2.5 mi North 20.7 mph 27.6 mph N/A   Clear
11:53 PM -27.9 °F -59.7 °F -34.1 °F 73% 29.31 in 1.2 mi North 21.9 mph 31.1 mph 0.00 in   Haze